TimeEDT,TemperatureF,Dew PointF,Humidity,Sea Level PressureIn,VisibilityMPH,Wind Direction,Wind SpeedMPH,Gust SpeedMPH,PrecipitationIn,Events,Conditions,WindDirDegrees,DateUTC
12:56 AM,66.9,64.0,90,30.02,10.0,Calm,Calm,-,N/A,,Scattered Clouds,0,2012-09-22 04:56:00
1:56 AM,66.9,64.0,90,30.03,10.0,Calm,Calm,-,N/A,,Mostly Cloudy,0,2012-09-22 05:56:00
2:56 AM,64.9,63.0,93,30.02,10.0,North,4.6,-,N/A,,Mostly Cloudy,350,2012-09-22 06:56:00
3:56 AM,66.9,64.0,90,30.02,10.0,Calm,Calm,-,N/A,,Mostly Cloudy,0,2012-09-22 07:56:00
4:56 AM,66.0,64.0,93,30.01,10.0,Calm,Calm,-,N/A,,Overcast,0,2012-09-22 08:56:00
5:56 AM,64.9,63.0,93,30.03,10.0,Calm,Calm,-,N/A,,Mostly Cloudy,0,2012-09-22 09:56:00
6:56 AM,66.0,64.0,93,30.04,10.0,Calm,Calm,-,N/A,,Mostly Cloudy,0,2012-09-22 10:56:00
7:56 AM,66.0,64.0,93,30.05,9.0,North,3.5,-,N/A,,Scattered Clouds,350,2012-09-22 11:56:00
8:56 AM,68.0,64.9,90,30.05,7.0,North,3.5,-,N/A,,Scattered Clouds,360,2012-09-22 12:56:00
9:56 AM,73.0,66.9,81,30.05,10.0,Calm,Calm,-,N/A,,Scattered Clouds,0,2012-09-22 13:56:00
10:56 AM,78.1,66.9,68,30.06,10.0,Calm,Calm,-,N/A,,Scattered Clouds,0,2012-09-22 14:56:00
11:56 AM,81.0,66.0,60,30.06,10.0,SW,4.6,-,N/A,,Scattered Clouds,230,2012-09-22 15:56:00
12:56 PM,82.9,66.0,56,30.03,10.0,Variable,4.6,-,N/A,,Scattered Clouds,0,2012-09-22 16:56:00
1:56 PM,84.0,64.9,53,30.01,10.0,West,4.6,-,N/A,,Scattered Clouds,280,2012-09-22 17:56:00
2:56 PM,86.0,64.9,49,29.98,10.0,South,5.8,-,N/A,,Scattered Clouds,190,2012-09-22 18:56:00
3:56 PM,84.0,66.9,56,29.97,10.0,South,15.0,-,N/A,,Partly Cloudy,170,2012-09-22 19:56:00
4:56 PM,82.9,66.9,58,29.97,10.0,South,12.7,-,N/A,,Partly Cloudy,180,2012-09-22 20:56:00
5:56 PM,81.0,64.9,58,29.98,10.0,SSW,10.4,-,N/A,,Partly Cloudy,200,2012-09-22 21:56:00
6:56 PM,78.1,64.9,64,29.98,10.0,South,9.2,-,N/A,,Partly Cloudy,190,2012-09-22 22:56:00
7:56 PM,73.0,66.0,79,29.99,10.0,South,5.8,-,N/A,,Partly Cloudy,190,2012-09-22 23:56:00
8:56 PM,73.0,66.9,81,30.00,10.0,SSW,5.8,-,N/A,,Clear,200,2012-09-23 00:56:00
9:56 PM,71.1,66.9,87,30.01,10.0,SSW,5.8,-,N/A,,Clear,200,2012-09-23 01:56:00
10:56 PM,72.0,66.9,84,30.01,10.0,SSW,5.8,-,N/A,,Clear,210,2012-09-23 02:56:00
11:56 PM,71.1,68.0,90,30.01,10.0,SW,5.8,-,N/A,,Clear,220,2012-09-23 03:56:00